Location: Ferma
(41.9500°N, 44.5167°E)
Time: 20:07:44
(UTC+00:00)

FENGYUN 1C DEB - Pass Details

Date: 12 August 2022
Orbit: 606 x 930 km, 99.7° (Epoch: 01 October)

Event Time Altitude Azimuth Distance (km) Brightness Sun altitude
Exits shadow 19:19:32 12° 242° (WSW) 2,102 ? -28.1°
Maximum altitude 19:21:39 15° 270° (W) 1,953 ? -28.3°
Drops below altitude 10° 19:24:41 10° 306° (NW) 2,375 ? -28.6°
Sets 19:28:08 0° 328° (NNW) 3,383 ? -28.9°
